カタログに戻る

COSMOS 873

運用中軍事LEO
NORAD 9590·PAYLOAD·🇷🇺 Russia

打ち上げ Dec 7, 1976 から Plesetsk Cosmodrome

Loading…

次のパス (今後24時間)

TLE

最新Source: Space-Track

元期: Sep 14, 2026, 05:39 UTC

1 09590U 76118C   26257.23568859 -.00000015  00000-0  56996-5 0  9991
2 09590  74.0342  12.3388 0019923 124.5543 248.7585 12.46417703264453

AllMySatでCOSMOS 873をリアルタイム追跡

Download on the App Store